Date String (YYYY-MM-DD hh:mm:ss) UTC,Instrument flags,Ambient pressure (hPa),Sample flow (lpm),Bypass flow (lpm),Sample temperature (°C),Ambient temperature (°C),ASC tube jacket temperature (°C),LED temperature (°C),Box temperature (°C),Sample RH (%),Span deviation,Mass concentration (μg/m³),Mass concentration (μg/m³),Mass concentration (μg/m³)
DateTimeUTC,F1_M11,P_M11,Q1_M11,Q2_M11,T1_M11,T2_M11,T3_M11,T4_M11,T5_M11,U1_M11,ZSPAN_M11,X0_M11,X2_M11,X1_M11
2023-01-27 11:00:00,,0822.1,4.98,0.00,22.3,20.7,00.0,31.2,23.9,08.1,0000.0,0001.25,0000.57,0000.35
2023-01-27 11:01:00,,0822.0,4.99,0.00,22.2,20.5,00.0,31.1,23.9,08.1,0000.0,0001.32,0000.58,0000.35
2023-01-27 11:02:00,,0822.0,5.00,0.00,22.2,20.5,00.0,31.1,23.9,08.3,0000.0,0001.29,0000.57,0000.33
2023-01-27 11:03:00,,0822.0,5.00,0.00,22.2,20.5,00.0,31.1,23.9,08.4,0000.0,0002.60,0000.56,0000.32
2023-01-27 11:04:00,,0822.0,5.01,0.00,22.2,20.4,00.0,31.1,23.8,08.4,0000.0,0002.84,0000.54,0000.31
2023-01-27 11:05:00,,0822.0,5.01,0.00,22.1,20.5,00.0,31.1,23.8,08.5,0000.0,0002.86,0000.53,0000.32
2023-01-27 11:06:00,,0822.1,5.02,0.00,22.1,20.5,00.0,31.1,23.8,08.3,0000.0,0003.56,0000.56,0000.32
2023-01-27 11:07:00,,0822.0,4.99,0.00,22.1,20.4,00.0,31.1,23.8,08.3,0000.0,0003.53,0000.56,0000.32
2023-01-27 11:08:00,,0822.0,5.01,0.00,22.0,20.2,00.0,31.0,23.7,08.4,0000.0,0003.42,0000.54,0000.31
2023-01-27 11:09:00,,0821.9,4.99,0.00,22.0,20.2,00.0,31.0,23.5,08.5,0000.0,0003.35,0000.52,0000.31
2023-01-27 11:10:00,,0822.0,5.02,0.00,22.0,21.2,00.0,31.0,23.8,08.5,0000.0,0003.27,0000.52,0000.32
2023-01-27 11:11:00,,0822.0,5.02,0.00,22.2,22.4,00.0,30.9,24.1,08.6,0000.0,0003.27,0000.52,0000.32
2023-01-27 11:12:00,,0821.9,4.99,0.00,22.3,22.6,00.0,31.0,24.3,08.8,0000.0,0003.15,0000.48,0000.32
2023-01-27 11:13:00,,0821.8,4.98,0.00,22.3,22.0,00.0,31.0,24.1,08.4,0000.0,0003.07,0000.45,0000.32
2023-01-27 11:14:00,,0821.9,5.02,0.00,22.2,21.5,00.0,31.0,24.0,08.3,0000.0,0001.72,0000.45,0000.31
2023-01-27 11:15:00,,0822.0,5.01,0.00,22.2,21.0,00.0,31.0,23.8,08.2,0000.0,0001.46,0000.45,0000.31
2023-01-27 11:16:00,,0822.0,5.00,0.00,22.1,20.6,00.0,31.0,23.7,08.3,0000.0,0001.33,0000.44,0000.30
2023-01-27 11:17:00,,0822.1,5.00,0.00,22.1,20.4,00.0,31.0,23.7,08.4,0000.0,0000.69,0000.42,0000.30
2023-01-27 11:18:00,,0822.0,5.00,0.00,22.0,20.4,00.0,31.0,23.7,08.4,0000.0,0000.86,0000.40,0000.30
2023-01-27 11:19:00,,0822.1,5.00,0.00,22.0,20.4,00.0,31.0,23.7,08.4,0000.0,0002.31,0000.42,0000.31
2023-01-27 11:20:00,,0822.0,5.00,0.00,22.0,20.4,00.0,31.0,23.7,08.4,0000.0,0002.40,0000.44,0000.31
2023-01-27 11:21:00,,0822.1,5.00,0.00,22.0,20.4,00.0,31.0,23.7,08.4,0000.0,0002.41,0000.45,0000.31
2023-01-27 11:22:00,,0822.1,5.00,0.00,22.0,20.4,00.0,31.0,23.7,08.5,0000.0,0002.43,0000.46,0000.31
2023-01-27 11:23:00,,0822.0,5.01,0.00,22.0,20.4,00.0,31.0,23.7,08.4,0000.0,0002.54,0000.50,0000.31
2023-01-27 11:24:00,,0822.1,5.00,0.00,22.0,20.3,00.0,30.9,23.7,08.4,0000.0,0002.59,0000.52,0000.31
2023-01-27 11:25:00,,0822.0,4.99,0.00,21.9,20.2,00.0,30.9,23.6,08.5,0000.0,0002.57,0000.52,0000.31
2023-01-27 11:26:00,,0822.1,5.02,0.00,21.9,20.2,00.0,30.9,23.5,08.5,0000.0,0002.59,0000.53,0000.32
2023-01-27 11:27:00,,0822.1,5.00,0.00,21.9,20.1,00.0,30.9,23.5,08.6,0000.0,0002.93,0000.55,0000.32
2023-01-27 11:28:00,,0822.1,5.00,0.00,21.9,21.1,00.0,30.8,23.7,08.8,0000.0,0003.06,0000.58,0000.32
2023-01-27 11:29:00,,0822.1,4.99,0.00,22.0,22.2,00.0,30.8,24.0,08.7,0000.0,0002.82,0000.59,0000.33
2023-01-27 11:30:00,,0822.1,5.00,0.00,22.1,22.6,00.0,30.9,24.2,08.6,0000.0,0001.43,0000.59,0000.33
2023-01-27 11:31:00,,0822.1,5.00,0.00,22.2,22.0,00.0,30.9,24.0,08.5,0000.0,0001.36,0000.58,0000.34
2023-01-27 11:32:00,,0822.0,5.01,0.00,22.1,21.3,00.0,30.9,23.9,08.6,0000.0,0001.32,0000.56,0000.34
2023-01-27 11:33:00,,0822.0,5.00,0.00,22.0,20.8,00.0,30.9,23.7,08.7,0000.0,0001.30,0000.56,0000.34
2023-01-27 11:34:00,,0822.0,5.00,0.00,22.0,20.5,00.0,30.9,23.6,08.9,0000.0,0001.29,0000.54,0000.35
2023-01-27 11:35:00,,0821.9,4.99,0.00,22.0,20.3,00.0,30.9,23.6,08.7,0000.0,0001.33,0000.54,0000.35
2023-01-27 11:36:00,,0821.8,5.01,0.00,21.9,20.3,00.0,30.9,23.6,08.5,0000.0,0001.32,0000.53,0000.35
2023-01-27 11:37:00,,0821.9,5.01,0.00,21.9,20.3,00.0,30.9,23.5,08.6,0000.0,0001.30,0000.52,0000.34
2023-01-27 11:38:00,,0822.0,5.02,0.00,21.9,20.1,00.0,30.9,23.4,08.8,0000.0,0000.89,0000.48,0000.34
2023-01-27 11:39:00,,0822.0,5.02,0.00,21.8,19.9,00.0,30.9,23.3,08.9,0000.0,0000.77,0000.45,0000.34
2023-01-27 11:40:00,,0821.8,5.00,0.00,21.7,19.7,00.0,30.8,23.2,08.9,0000.0,0000.74,0000.44,0000.33
2023-01-27 11:41:00,,0821.9,5.00,0.00,21.6,19.5,00.0,30.8,23.1,08.9,0000.0,0000.73,0000.43,0000.33
2023-01-27 11:42:00,,0822.0,5.00,0.00,21.6,19.6,00.0,30.7,23.1,08.9,0000.0,0000.70,0000.41,0000.32
2023-01-27 11:43:00,,0822.0,5.00,0.00,21.7,20.9,00.0,30.7,23.4,08.9,0000.0,0000.70,0000.41,0000.31
2023-01-27 11:44:00,,0822.1,4.99,0.00,21.8,22.1,00.0,30.7,23.7,08.7,0000.0,0000.66,0000.38,0000.30
2023-01-27 11:45:00,,0822.1,5.01,0.00,21.9,22.5,00.0,30.7,23.9,08.7,0000.0,0000.55,0000.35,0000.30
2023-01-27 11:46:00,,0822.1,4.99,0.00,22.0,22.0,00.0,30.7,23.9,08.6,0000.0,0000.52,0000.35,0000.30
2023-01-27 11:47:00,,0822.1,5.00,0.00,22.0,21.6,00.0,30.8,23.8,08.5,0000.0,0000.50,0000.34,0000.29
2023-01-27 11:48:00,,0822.0,5.00,0.00,22.0,21.2,00.0,30.8,23.7,08.4,0000.0,0000.48,0000.34,0000.30
2023-01-27 11:49:00,,0822.0,4.98,0.00,21.9,20.8,00.0,30.8,23.6,08.4,0000.0,0000.49,0000.35,0000.30
2023-01-27 11:50:00,,0822.0,5.01,0.00,21.9,20.5,00.0,30.8,23.5,08.4,0000.0,0000.48,0000.34,0000.30
2023-01-27 11:51:00,,0822.1,5.00,0.00,21.9,20.4,00.0,30.8,23.5,08.4,0000.0,0000.55,0000.35,0000.29
2023-01-27 11:52:00,,0822.0,5.00,0.00,21.8,20.2,00.0,30.8,23.4,08.5,0000.0,0000.57,0000.37,0000.30
2023-01-27 11:53:00,,0822.0,4.99,0.00,21.8,20.1,00.0,30.8,23.3,08.6,0000.0,0000.60,0000.38,0000.30
2023-01-27 11:54:00,,0822.0,5.00,0.00,21.8,20.0,00.0,30.8,23.3,08.5,0000.0,0000.71,0000.38,0000.30
2023-01-27 11:55:00,,0821.9,5.00,0.00,21.7,19.9,00.0,30.7,23.3,08.5,0000.0,0001.30,0000.42,0000.31
2023-01-27 11:56:00,,0821.9,5.00,0.00,21.7,19.9,00.0,30.7,23.3,08.5,0000.0,0001.33,0000.42,0000.30
2023-01-27 11:57:00,,0821.9,4.99,0.00,21.7,19.8,00.0,30.7,23.3,08.6,0000.0,0001.60,0000.41,0000.30
2023-01-27 11:58:00,,0822.0,5.01,0.00,21.6,19.8,00.0,30.7,23.2,08.6,0000.0,0001.72,0000.42,0000.30
2023-01-27 11:59:00,,0822.1,5.02,0.00,21.6,19.9,00.0,30.6,23.3,08.6,0000.0,0001.74,0000.42,0000.30
